Regional Weather Roundup
Issued by NWS Sioux Falls, SD

Home | Current Version | Previous Version | Text Only | Print | Product List | Glossary Off
Versions: 1 2 3 4 5 6 7 8 9 10 11 12 13 14 15 16 17 18 19 20 21 22 23 24 25 26 27 28 29 30 31 32 33 34 35 36 37 38 39 40 41 42 43 44 45 46 47 48 49 50

000
ASUS43 KFSD 271302
RWRFSD

WEATHER ROUNDUP FOR SE SOUTH DAKOTA/SW MINNESOTA/NW IOWA
NATIONAL WEATHER SERVICE SIOUX FALLS SD
800 AM CDT THU APR 27 2017

NOTE: "FAIR" INDICATES FEW OR NO CLOUDS BELOW 12,000 FEET WITH NO
SIGNIFICANT WEATHER AND OR OBSTRUCTIONS TO VISIBILITY.


SDZ038>040-050-052>070-271400-
SOUTHEAST SOUTH DAKOTA

CITY           SKY/WX    TMP DP  RH WIND       PRES   REMARKS
BROOKINGS      PTSUNNY   30  23  75 N18G24    29.64R WCI  18
CHAMBERLAIN    CLOUDY    34  27  76 NW7       29.70S WCI  28
HURON          CLOUDY    31  26  82 NW13      29.70S WCI  21
MADISON        CLOUDY    28  28 100 N16G23    29.65S WCI  17
MITCHELL       CLOUDY    32  25  75 N15       29.71R WCI  22
SIOUX FALLS    CLOUDY    31  27  85 N13       29.66R WCI  21
WINNER         FOG       25  23  92 CALM      29.70R VSB 1/4
YANKTON        CLOUDY    32  25  74 NW13      29.69R WCI  22
$$

MNZ071-072-080-081-089-090-097-098-271400-
SOUTHWEST MINNESOTA

CITY           SKY/WX    TMP DP  RH WIND       PRES   REMARKS
FAIRMONT       CLOUDY    31  28  89 NW18      29.59R WCI  19
JACKSON        CLOUDY    30  28  93 NW18      29.60R FOG     WCI  18
LUVERNE        CLOUDY    30  27  86 NW10G16   29.65R WCI  21
MARSHALL       CLOUDY    28  24  85 NW17      29.63S WCI  16
MONTEVIDEO     CLOUDY    28  28 100 N13       29.62S WCI  18
PIPESTONE      CLOUDY    28  21  74 N10G24    29.62R WCI  19
REDWOOD FALLS  CLOUDY    30  27  88 NW18      29.59S WCI  18
TRACY          CLOUDY    29  26  87 NW17G24   29.62S WCI  17
WINDOM         CLOUDY    28  27  93 NW16G24   29.59S FOG     WCI  17
WORTHINGTON    CLOUDY    28  23  81 NW17G25   29.62R WCI  16
$$

IAZ001>003-012>014-020>022-031-032-NEZ013-014-SDZ071-271400-
NORTHWEST IOWA

CITY           SKY/WX    TMP DP  RH WIND       PRES   REMARKS
CHEROKEE       CLOUDY    32  29  91 N9        29.66R WCI  24
DENISON        CLOUDY    34  28  80 NW10      29.68R WCI  26
ESTHERVILLE    CLOUDY    30  27  88 NW18      29.60R WCI  18
LE MARS        CLOUDY    32  28  86 NW12      29.68S WCI  23
ORANGE CITY    CLOUDY    30  28  93 N12G17    29.65R WCI  21
SHELDON        CLOUDY    30  27  86 NW15G23   29.63S WCI  19
SIOUX CITY     CLOUDY    32  27  81 NW14      29.69R WCI  22
SPENCER        CLOUDY    30  26  85 NW14G22   29.62R WCI  19
STORM LAKE     CLOUDY    30  27  86 NW18      29.63S WCI  18
$$

ABBREVIATIONS USED IN REMARKS
   TC - TEMPERATURE IN CELSIUS
  WCI - WIND CHILL INDEX
   HX - HEAT INDEX
  VSB - VISIBILITY





USA.gov is the U.S. government's official web portal to all federal, state and local government web resources and services.